Regional Weather Roundup
Issued by NWS Sterling, VA

Home | Current Version | Previous Version | Text Only | Print | Product List | Glossary On
Versions: 1 2 3 4 5 6 7 8 9 10 11 12 13 14 15 16 17 18 19 20 21 22 23 24 25 26 27 28 29 30 31 32 33 34 35 36 37 38 39 40 41 42 43 44 45 46 47 48 49 50
680
ASUS41 KLWX 111010
RWRLWX

REGIONAL WEATHER ROUNDUP
NATIONAL WEATHER SERVICE BALTIMORE MD/WASHINGTON DC
500 AM EST SUN DEC 11 2016

Note: "FAIR" indicates few or no clouds below 12,000 feet
with no significant weather and/or obstructions to visibility.
 TC=TEMPERATURE CELSIUS

 * =Non NWS site. Station does not report precipitation (e.g. rain,
    snow, etc.), thunder, or fog.

DCZ001-MDZ009-015-VAZ040>042-051-053>054-111100-
WASHINGTON METRO

CITY           SKY/WX    TMP DP  RH WIND       PRES   REMARKS
WASHINGTON NAT CLOUDY    31  15  52 N3        30.54R
DULLES         CLOUDY    26  16  65 CALM      30.52S
ANDREWS AFB    CLOUDY    27  21  78 S1        30.52R
QUANTICO       CLOUDY    29  21  72 NW3       30.56R
COLLEGE PARK*  CLOUDY    28  18  64 CALM      30.53R
LEESBURG*      CLOUDY    28  21  74 CALM      30.53R
GAITHERSBURG*  CLOUDY    25  16  68 CALM      30.54R

$$

MDZ006>007-011-014-111100-
BALTIMORE METRO

CITY           SKY/WX    TMP DP  RH WIND       PRES   REMARKS
BWI AIRPORT    CLOUDY    27  18  69 CALM      30.53R
MD SCIENCE CTR   N/A     30  13  49 MISG      30.53R
ANNAPOLIS      CLOUDY    30  15  53 W3        30.53S
FORT MEADE*    CLOUDY    27  21  80 CALM      30.56R

$$

MDZ012-015-019>023-111100-
MARYLAND EASTERN SHORE

CITY           SKY/WX    TMP DP  RH WIND       PRES   REMARKS
OCEAN CITY     CLOUDY    27  18  69 N5        30.53F
SALISBURY      CLOUDY    26  21  81 CALM      30.53F
BAY BRIDGE AP* MOCLDY    30  19  64 CALM      30.54R
CAMBRIDGE*     CLOUDY    27  21  80 CALM      30.52S
EASTON*        CLOUDY    28  21  76 CALM      30.57R

$$

MDZ017>025-111100-
SOUTHERN MARYLAND

CITY           SKY/WX    TMP DP  RH WIND       PRES   REMARKS
PATUXENT RIVER CLOUDY    32  18  56 N6        30.53F
ST INIGOES     CLOUDY    30  18  60 CALM      30.52F
LEONARDTOWN*   CLOUDY    30  19  64 CALM      30.55R

$$

MDZ003>005-111100-
NORTH CENTRAL MARYLAND

CITY           SKY/WX    TMP DP  RH WIND       PRES   REMARKS
FREDERICK*     CLOUDY    28  19  69 CALM      30.54S
HAGERSTOWN APT   N/A     26  13  57 CALM      30.48S
WESTMINSTER*     N/A     25  14  63 CALM      30.48R

$$

MDZ501>502-111100-
WESTERN MARYLAND

CITY           SKY/WX    TMP DP  RH WIND       PRES   REMARKS
OAKLAND*       CLOUDY    18  14  86 CALM      30.30F FOG
CUMBERLAND*    NOT AVBL

$$

VAZ025>031-111100-
SHENANDOAH VALLEY

CITY           SKY/WX    TMP DP  RH WIND       PRES   REMARKS
WINCHESTER*    LGT SNOW  25  18  74 CALM      30.50R
FRONT ROYAL*   PTSUNNY   27  19  74 CALM      30.49R
LURAY*         FAIR      27  21  80 CALM      30.48R
NEW MARKET*    FAIR      24  18  80 CALM      30.46R
STAUNTON*      MOCLDY    24  17  75 N3        30.47R
WAYNESBORO*    FAIR      24  11  57 SE6       30.44R

$$

WVZ021-048>050-054>055-111100-
EASTERN WEST VIRGINIA PANHANDLE

CITY           SKY/WX    TMP DP  RH WIND       PRES   REMARKS
MARTINSBURG    CLOUDY    26  15  63 SW5       30.51R
PETERSBURG*    CLOUDY    25  19  77 CALM      30.48R

$$

VAZ036>039-050-111100-
CENTRAL FOOTHILLS

CITY           SKY/WX    TMP DP  RH WIND       PRES   REMARKS
CHARLOTTESVILL PTCLDY    27  16  63 CALM      30.51R
CULPEPER*      CLOUDY    27  20  75 CALM      30.55R
ORANGE*          N/A     28  19  69 CALM      30.54R
GORDONSVILLE*  FAIR      25  20  83 CALM      30.51R
WARRENTON*     MOCLDY    26  19  73 CALM      30.53R

$$

VAZ055>057-111100-
NORTH AND CENTRAL PIEDMONT

CITY           SKY/WX    TMP DP  RH WIND       PRES   REMARKS
FREDERICKSBRG* PTCLDY    28  22  78 CALM      30.54R
STAFFORD*      CLOUDY    25  23  93 CALM      30.57S

$$

NCZ024-NYZ072-PAZ021-071-VAZ022-071-111100-
OTHER REGIONAL OBSERVATIONS

CITY           SKY/WX    TMP DP  RH WIND       PRES   REMARKS
NEW YORK CITY  CLOUDY    28  14  55 W6        30.51R
PHILADELPHIA   CLOUDY    29  15  56 CALM      30.54R
PITTSBURGH     LGT SNOW  24  21  88 SE6       30.39F FOG
ROANOKE        CLOUDY    30  17  58 CALM      30.44S
RICHMOND       CLOUDY    28  19  69 NE5       30.53S
RALEIGH        CLOUDY    27  18  69 CALM      30.47F

$$

ANZ530>537-111100-
MARINE OBSERVATIONS

STATION/POSITION TIME  TEMP    WIND        PRES
                       AIR SEA DIR/SP/G
                 (UTC) (F)     (DEG/KT/KT) (MB)
THOMAS PT LIGHT  1000   31 44  330/  6/  7   N/A
BALT KEY BRIDGE  0942   29     230/  5/  6 1034.1R
COVE POINT       0942   32      70/  4/  7 1034.4S
LEWISETTA        0942   33 42   30/  2/  4 1033.2F
SOLOMONS ISLAND  0942   31 47  340/  6/  7   N/A
PINEY POINT      0948           10/  5/  5   N/A

$$





USA.gov is the U.S. government's official web portal to all federal, state and local government web resources and services.